Change the Weather History Date:

Monday, March 18, 2013

  Actual Average (KHDO) Record (KHDO)
Temperature  
Mean Temperature 76 °F -  
Max Temperature 93 °F 70 °F 97 °F (2013)
Min Temperature 60 °F 47 °F 35 °F (2005)
Cooling Degree Days 12    
Growing Degree Days 26 (Base 50)    
Moisture  
Dew Point 38 °F    
Average Humidity 48    
Maximum Humidity 99    
Minimum Humidity 4    
Precipitation  
Precipitation 0.00 in - - ()
Sea Level Pressure  
Sea Level Pressure 29.81 in    
Wind  
Wind Speed 7 mph (NNE)    
Max Wind Speed 21 mph    
Max Gust Speed 26 mph    
Visibility 8 miles    
Events Fog    
Averages and records for this station are not official NWS values.
T = Trace of Precipitation, MM = Missing Value Source: NWS Daily Summary

Daily Weather History Graph

Daily Weather History Graph

Search for Another Location

Airport or City:

Trip Planner

Search our weather history database for the weather conditions in past years. The results will help you decide how hot, cold, wet, or windy it might be!

Date:

Astronomy

Mar. 18, 2013 Rise Set
Actual Time 7:44 AM CDT 7:49 PM CDT
Civil Twilight 7:21 AM CDT 8:13 PM CDT
Nautical Twilight 6:53 AM CDT 8:40 PM CDT
Astronomical Twilight 6:25 AM CDT 9:08 PM CDT
Moon 12:11 PM CDT (3/18) 1:24 AM CDT (3/18)
Length of Visible Light 12h 51m
Length of Day
12h 04m
Waxing Crescent, 41% of the Moon is Illuminated
Mar 18
Waxing Crescent
Mar 19
First Quarter
Mar 27
Full
Apr 2
Last Quarter
Apr 10
New

Hourly Weather History & Observations

Time (CDT) Temp. Dew Point Humidity Pressure Visibility Wind Dir Wind Speed Gust Speed Precip Events Conditions
12:15 AM 68.0 °F 49.5 °F 51% 29.72 in 10.0 mi East 4.6 mph - N/A   Clear
12:35 AM 68.0 °F 53.8 °F 60% 29.72 in 10.0 mi ESE 6.9 mph - N/A   Clear
12:55 AM 68.0 °F 57.2 °F 68% 29.72 in 10.0 mi ESE 9.2 mph - N/A   Clear
1:15 AM 68.0 °F 56.7 °F 67% 29.72 in 10.0 mi ESE 3.5 mph - N/A   Clear
1:35 AM 68.0 °F 58.5 °F 71% 29.72 in 10.0 mi East 5.8 mph - N/A   Clear
1:55 AM 65.3 °F 58.1 °F 77% 29.73 in 10.0 mi NNE 5.8 mph - N/A   Clear
2:15 AM 61.2 °F 54.3 °F 78% 29.74 in 10.0 mi NE 5.8 mph - N/A   Clear
2:35 AM 62.8 °F 58.1 °F 85% 29.74 in 10.0 mi ENE 6.9 mph - N/A   Clear
2:55 AM 62.8 °F 59.0 °F 87% 29.74 in 10.0 mi NNE 4.6 mph - N/A   Clear
3:15 AM 62.8 °F 59.7 °F 90% 29.75 in 10.0 mi NNE 6.9 mph - N/A   Clear
3:35 AM 62.8 °F 59.9 °F 90% 29.75 in 10.0 mi NE 5.8 mph - N/A   Clear
3:55 AM 61.0 °F 58.3 °F 91% 29.75 in 7.0 mi NE 6.9 mph - N/A   Clear
4:15 AM 61.2 °F 59.0 °F 93% 29.75 in 7.0 mi NE 8.1 mph - N/A   Clear
4:35 AM 61.0 °F 59.4 °F 94% 29.76 in 7.0 mi NE 6.9 mph - N/A   Clear
4:55 AM 61.0 °F 59.4 °F 94% 29.76 in 7.0 mi NNE 8.1 mph - N/A   Clear
5:15 AM 61.0 °F 59.5 °F 95% 29.77 in 5.0 mi NE 8.1 mph - N/A   Clear
5:35 AM 61.0 °F 59.9 °F 96% 29.78 in 5.0 mi NE 3.5 mph - N/A   Clear
5:55 AM 60.3 °F 59.0 °F 96% 29.78 in 5.0 mi NE 4.6 mph - N/A   Clear
6:15 AM 60.1 °F 59.0 °F 96% 29.78 in 5.0 mi NE 5.8 mph - N/A   Clear
6:35 AM 60.3 °F 59.2 °F 96% 29.79 in 4.0 mi ENE 5.8 mph - N/A   Scattered Clouds
6:55 AM 61.0 °F 60.1 °F 97% 29.80 in 2.0 mi NE 6.9 mph - N/A   Overcast
7:15 AM 62.2 °F 61.5 °F 97% 29.81 in 0.8 mi NNE 8.1 mph - N/A   Overcast
7:35 AM 62.8 °F 62.1 °F 97% 29.81 in 0.5 mi NE 6.9 mph - N/A Fog Fog
7:55 AM 63.9 °F 63.5 °F 99% 29.83 in 0.2 mi NNE 5.8 mph - N/A Fog Fog
8:15 AM 63.1 °F 62.6 °F 98% 29.83 in 0.2 mi NE 3.5 mph - N/A   Heavy Drizzle
8:35 AM 62.8 °F 62.4 °F 99% 29.83 in 0.2 mi NE 5.8 mph - N/A   Heavy Drizzle
8:55 AM 62.8 °F 62.6 °F 99% 29.84 in 0.2 mi NNE 3.5 mph - N/A   Heavy Drizzle
9:15 AM 62.8 °F 62.6 °F 99% 29.85 in 0.2 mi NE 3.5 mph - N/A   Drizzle
9:35 AM 63.0 °F 62.6 °F 99% 29.85 in 0.2 mi North 3.5 mph - N/A   Light Drizzle
9:55 AM 63.7 °F 63.3 °F 99% 29.86 in 0.2 mi Calm Calm - N/A Fog Fog
10:15 AM 63.7 °F 63.3 °F 99% 29.86 in 1.2 mi Calm Calm - N/A   Overcast
10:35 AM 66.9 °F 66.6 °F 99% 29.86 in 5.0 mi Calm Calm - N/A   Scattered Clouds
10:55 AM 68.0 °F 66.9 °F 96% 29.86 in 10.0 mi Calm Calm - N/A   Clear
11:15 AM 74.8 °F 63.0 °F 66% 29.86 in 10.0 mi WNW 4.6 mph - N/A   Clear
11:35 AM 77.9 °F 60.3 °F 54% 29.85 in 10.0 mi West 4.6 mph - N/A   Clear
11:55 AM 85.5 °F 46.0 °F 25% 29.85 in 10.0 mi West 13.8 mph - N/A   Clear
12:15 PM 88.7 °F 20.1 °F 8% 29.85 in 10.0 mi NW 15.0 mph 25.3 mph N/A   Clear
12:35 PM 90.5 °F 17.6 °F 7% 29.84 in 10.0 mi West 16.1 mph 23.0 mph N/A   Clear
12:55 PM 90.5 °F 15.4 °F 6% 29.84 in 10.0 mi NW 20.7 mph 26.5 mph N/A   Clear
1:15 PM 91.8 °F 16.9 °F 6% 29.83 in 10.0 mi WNW 16.1 mph 24.2 mph N/A   Clear
1:35 PM 93.2 °F 16.9 °F 6% 29.83 in 10.0 mi NNW 13.8 mph 25.3 mph N/A   Clear
1:55 PM 92.3 °F 14.5 °F 6% 29.82 in 10.0 mi NW 11.5 mph 23.0 mph N/A   Clear
2:15 PM 93.2 °F 11.7 °F 5% 29.81 in 10.0 mi WNW 12.7 mph 18.4 mph N/A   Clear
2:35 PM 93.2 °F 12.2 °F 5% 29.80 in 10.0 mi West 12.7 mph 17.3 mph N/A   Clear
2:55 PM 93.2 °F 7.0 °F 4% 29.79 in 10.0 mi WSW 11.5 mph 17.3 mph N/A   Clear
3:15 PM 93.2 °F 7.2 °F 4% 29.78 in 10.0 mi West 15.0 mph - N/A   Clear
3:35 PM 93.2 °F 5.5 °F 4% 29.78 in 10.0 mi North 3.5 mph - N/A   Clear
3:55 PM 93.2 °F 6.8 °F 4% 29.77 in 10.0 mi NNW 9.2 mph 16.1 mph N/A   Clear
4:15 PM 93.2 °F 3.4 °F 4% 29.77 in 10.0 mi North 6.9 mph 17.3 mph N/A   Clear
4:35 PM 93.2 °F 5.0 °F 4% 29.78 in 10.0 mi NNW 9.2 mph - N/A   Clear
4:55 PM 93.2 °F 1.4 °F 4% 29.78 in 10.0 mi SW 5.8 mph - N/A   Clear
5:15 PM 93.4 °F 3.6 °F 4% 29.78 in 10.0 mi NNW 6.9 mph - N/A   Clear
5:35 PM 93.2 °F 5.2 °F 4% 29.78 in 10.0 mi NNW 13.8 mph 19.6 mph N/A   Clear
5:55 PM 93.2 °F 5.5 °F 4% 29.78 in 10.0 mi NNW 9.2 mph - N/A   Clear
6:15 PM 93.2 °F 6.6 °F 4% 29.78 in 10.0 mi NNW 9.2 mph - N/A   Clear
6:35 PM 92.7 °F 4.6 °F 4% 29.79 in 10.0 mi North 11.5 mph - N/A   Clear
6:55 PM 89.2 °F 4.8 °F 4% 29.80 in 10.0 mi North 8.1 mph - N/A   Clear
7:15 PM 88.0 °F 8.4 °F 5% 29.80 in 10.0 mi North 8.1 mph - N/A   Clear
7:35 PM 88.0 °F 12.7 °F 6% 29.81 in 10.0 mi North 8.1 mph - N/A   Clear
7:55 PM 85.5 °F 13.1 °F 7% 29.82 in 10.0 mi NNE 9.2 mph - N/A   Clear
8:15 PM 81.5 °F 16.2 °F 9% 29.83 in 10.0 mi NE 6.9 mph - N/A   Clear
8:35 PM 80.6 °F 21.7 °F 11% 29.84 in 10.0 mi NNE 8.1 mph - N/A   Clear
8:55 PM 80.6 °F 26.1 °F 14% 29.85 in 10.0 mi NNE 10.4 mph - N/A   Clear
9:15 PM 77.9 °F 27.7 °F 16% 29.85 in 10.0 mi NE 9.2 mph - N/A   Clear
9:35 PM 77.9 °F 30.2 °F 17% 29.86 in 10.0 mi NE 11.5 mph - N/A   Clear
9:55 PM 75.9 °F 31.1 °F 19% 29.88 in 10.0 mi NE 8.1 mph - N/A   Clear
10:15 PM 75.4 °F 32.2 °F 21% 29.88 in 10.0 mi ENE 6.9 mph - N/A   Clear
10:35 PM 72.9 °F 33.4 °F 24% 29.90 in 10.0 mi East 9.2 mph - N/A   Clear
10:55 PM 72.9 °F 35.6 °F 26% 29.90 in 10.0 mi ENE 8.1 mph - N/A   Clear
11:15 PM 72.9 °F 37.6 °F 28% 29.91 in 10.0 mi ENE 8.1 mph - N/A   Clear
11:35 PM 72.9 °F 38.3 °F 29% 29.91 in 10.0 mi East 8.1 mph - N/A   Clear